Location: Barrow Cemetery
(37.9189°N, 89.5943°W)
Time: 21:24:05
(UTC+00:00)

Daily predictions for brighter satellites

Satellite Brightness Start Highest point End
(mag) Time Altitude Azimuth Time Altitude Azimuth Time Altitude Azimuth
Milstar 3 Cent rocket 4.3 12:03:18 10° SW 12:07:15 19° S 12:12:45 10° SSE
Cosmos 1933 4.5 12:06:17 10° NW 12:09:17 22° W 12:12:21 10° SW
ERS-2 2.0 12:07:01 10° N 12:09:45 38° WNW 12:12:29 10° SW
SAR-Lupe-2 3.5 12:07:25 10° N 12:10:57 63° WNW 12:14:28 10° SSW
CZ-4C R/B 4.4 12:04:55 10° NNW 12:11:29 34° NE 12:19:04 10° ESE
PSLV R/B 4.1 12:09:04 10° N 12:12:58 34° WNW 12:16:49 10° SW
COSMO-SKYMED 1 3.9 12:11:08 10° SW 12:14:26 21° W 12:17:45 10° NW
Cosmos 1862 4.3 12:11:34 10° SW 12:14:43 24° WNW 12:17:52 10° NNW
Cosmos 2151 3.2 12:10:44 10° SSW 12:14:44 45° W 12:18:47 10° N
SeaSat 1 4.2 12:11:56 10° ESE 12:16:08 29° NE 12:20:21 10° N
USA 215 3.5 12:14:41 10° NE 12:20:55 50° NW 12:27:09 10° WSW
Meteor 1-31 Rocket 2.8 12:18:33 10° NNE 12:22:21 82° ESE 12:26:09 10° S
GENESIS II 4.3 12:20:42 10° SW 12:24:27 53° WNW 12:28:15 10° NNE
BlueWalker 3 3.8 12:26:09 10° W 12:28:39 17° SW 12:31:08 10° SSW
NOSS 3-4 (A) 4.2 22:54:48 10° NW 23:02:04 84° WSW 23:10:20 10° SSE
NOSS 3-4 (C) 4.2 22:54:57 10° NW 23:02:09 83° WSW 23:10:19 10° SSE
Cosmos 44 3.4 22:57:52 10° NNW 23:03:13 75° ENE 23:08:15 10° SE
CORIOLIS 4.4 22:58:51 10° SE 23:03:56 47° ENE 23:09:03 10° N
USA 234 3.4 23:01:12 10° NE 23:07:43 67° SE 23:14:12 10° SW
SJ-7 4.3 23:04:55 10° SSE 23:08:52 77° ENE 23:12:53 10° N
Cosmos 2227 Rocket 4.5 23:06:08 10° W 23:10:01 19° NW 23:13:55 10° N
Cosmos 2227 4.3 23:04:40 10° S 23:10:20 63° ESE 23:16:00 10° NNE
Cosmos 1140 Rocket 4.1 23:05:49 10° N 23:10:31 34° ENE 23:15:10 10° SE
Cosmos 1076 Rocket 3.6 23:06:49 10° N 23:11:11 84° W 23:15:31 10° S
Cosmos 1602 3.7 23:10:24 10° N 23:14:03 52° E 23:17:42 10° SSE
Nadezhda 4 Rocket 4.0 23:09:44 10° S 23:15:48 65° E 23:21:51 10° NNE
Cosmos 1782 3.8 23:15:55 10° SSE 23:19:12 26° E 23:22:29 10° NNE
Cosmos 1500 3.8 23:20:09 10° NNW 23:23:38 56° W 23:27:05 10° S
DMSP B5D2-2 4.5 23:19:46 10° N 23:24:56 68° WNW 23:30:07 10° SSW
Helios 1B rocket 3.6 23:22:41 10° S 23:26:27 45° W 23:30:15 10° NNW
Cosmos 1812 Rocket 3.5 23:22:55 10° S 23:27:10 60° E 23:31:28 10° NNE
SL-8 R/B 4.0 23:23:36 10° NW 23:28:12 46° NNE 23:32:49 10° E
Cosmos 1603 4.2 23:23:05 10° N 23:28:20 37° ENE 23:33:29 10° SE
CZ-4B R/B 3.5 23:25:50 10° SSE 23:29:24 70° ENE 23:33:00 10° N
Helios 1A 3.1 23:26:18 10° NNE 23:30:21 50° E 23:34:21 10° S
ISS -3.9 23:28:42 10° NW 23:32:03 75° NE 23:35:23 10° SE
CZ-2C R/B 3.0 23:33:21 10° SW 23:34:34 13° SSW 23:35:45 10° S
H-2A R/B 2.8 23:33:08 10° SW 23:35:13 23° S 23:39:17 10° ESE
CZ-4B R/B 3.7 23:30:45 10° SE 23:35:34 44° ENE 23:40:17 10° N
SMAP 3.2 23:31:55 10° S 23:36:35 80° WSW 23:41:15 10° NNW
SL-16 R/B 4.2 23:36:07 10° NW 23:41:05 32° WSW 23:46:02 10° SSW
NOAA 6 4.3 23:40:46 10° SE 23:45:35 43° ENE 23:50:25 10° N
Cosmos 1943 3.1 23:46:22 10° NNW 23:52:02 85° ENE 23:57:41 10° SSE
Cosmos 1627 Rocket 4.5 23:46:54 10° S 23:53:04 66° E 23:59:22 10° NNE
Cosmos-2242 4.1 23:50:52 10° SSW 23:55:02 46° W 23:59:13 10° N
